Change the Weather History Date:

Thursday, November 14, 2013

  Actual Average Record
Temperature  
Mean Temperature 49 °F -  
Max Temperature 52 °F 50 °F 59 °F (1997)
Min Temperature 46 °F 39 °F 33 °F (2010)
Degree Days  
Heating Degree Days 16    
Moisture  
Dew Point 42 °F    
Average Humidity 76    
Maximum Humidity 87    
Minimum Humidity 59    
Precipitation  
Precipitation 0.00 in 0.13 in - ()
Sea Level Pressure  
Sea Level Pressure 30.51 in    
Wind  
Wind Speed 13 mph ()    
Max Wind Speed 25 mph    
Max Gust Speed -    
Visibility 6.1 miles    
Events Rain    
Averages and records for this station are not official NWS values.
T = Trace of Precipitation, MM = Missing Value Source: Averaged Metar Reports

Daily Weather History Graph

Daily Weather History Graph

Search for Another Location

Airport or City:

Trip Planner

Search our weather history database for the weather conditions in past years. The results will help you decide how hot, cold, wet, or windy it might be!

Date:

Astronomy

Nov. 14, 2013 Rise Set
Actual Time 7:56 AM GMT 4:43 PM GMT
Civil Twilight 7:18 AM GMT 5:21 PM GMT
Nautical Twilight 6:36 AM GMT 6:02 PM GMT
Astronomical Twilight 5:56 AM GMT 6:43 PM GMT
Moon 3:17 PM GMT (11/14) 4:14 AM GMT (11/14)
Length of Visible Light 10h 02m
Length of Day
8h 46m
Waxing Gibbous, 90% of the Moon is Illuminated
Nov 14
Waxing Gibbous
Nov 17
Full
Nov 25
Last Quarter
Dec 3
New
Dec 9
First Quarter

Hourly Weather History & Observations

Time (GMT) Temp. Windchill Dew Point Humidity Pressure Visibility Wind Dir Wind Speed Gust Speed Precip Events Conditions
12:00 AM 48 °F - 43 °F 75% 30.32 in 5 mi West 15.7 mph - - Rain Light Rain Showers
12:00 AM 48.2 °F - 42.8 °F 82% 30.30 in 5.0 mi West 15.0 mph - N/A Rain Light Rain Showers
12:30 AM 48.2 °F - 41.0 °F 76% 30.33 in 6.2 mi West 24.2 mph - N/A   Mostly Cloudy
1:00 AM 48.2 °F - 42.8 °F 82% 30.33 in 6.2 mi WNW 19.6 mph - N/A   Mostly Cloudy
1:30 AM 48.2 °F - 42.8 °F 82% 30.33 in 3.1 mi WNW 13.8 mph - N/A Rain Light Rain Showers
2:00 AM 48.2 °F - 42.8 °F 82% 30.36 in 6.2 mi WNW 20.7 mph - N/A   Mostly Cloudy
2:30 AM 48.2 °F - 41.0 °F 76% 30.36 in 6.2 mi WNW 25.3 mph - N/A   Mostly Cloudy
3:00 AM 48.2 °F - 41.0 °F 76% 30.36 in 6.2 mi WNW 18.4 mph - N/A Rain Light Rain Showers
3:30 AM 48.2 °F - 42.8 °F 82% 30.39 in 6.2 mi West 20.7 mph - N/A   Mostly Cloudy
4:00 AM 48.2 °F - 42.8 °F 82% 30.39 in 5.0 mi West 16.1 mph - N/A Rain Light Rain Showers
4:30 AM 46.4 °F 40.4 °F 41.0 °F 81% 30.39 in 6.2 mi WNW 13.8 mph - N/A   Mostly Cloudy
5:00 AM 48.2 °F - 41.0 °F 76% 30.42 in 6.2 mi West 12.7 mph - N/A   Mostly Cloudy
5:30 AM 46.4 °F 39.8 °F 42.8 °F 87% 30.42 in 6.2 mi WNW 16.1 mph - N/A   Scattered Clouds
6:00 AM 47 °F - 43 °F 80% 30.45 in 3 mi WNW 13.4 mph - - Rain Light Rain Showers
6:00 AM 46.4 °F 40.4 °F 42.8 °F 87% 30.42 in 3.1 mi WNW 13.8 mph - N/A Rain Light Rain Showers
6:30 AM 46.4 °F 40.4 °F 42.8 °F 87% 30.45 in 6.2 mi WNW 13.8 mph - N/A   Scattered Clouds
7:00 AM 46.4 °F 39.8 °F 42.8 °F 87% 30.45 in 3.1 mi WNW 16.1 mph - N/A Rain Light Rain Showers
7:30 AM 46.4 °F 39.8 °F 39.2 °F 76% 30.45 in 6.2 mi West 16.1 mph - N/A   Scattered Clouds
8:00 AM 46.4 °F 40.7 °F 37.4 °F 71% 30.48 in 6.2 mi WNW 12.7 mph - N/A   Mostly Cloudy
8:30 AM 46.4 °F 41.9 °F 37.4 °F 71% 30.48 in 6.2 mi West 9.2 mph - N/A   Scattered Clouds
9:00 AM 48.2 °F - 41.0 °F 76% 30.51 in 6.2 mi WNW 10.4 mph - N/A   Mostly Cloudy
9:30 AM 48.2 °F - 41.0 °F 76% 30.51 in 6.2 mi WNW 8.1 mph - N/A   Mostly Cloudy
10:00 AM 50.0 °F - 39.2 °F 66% 30.51 in 6.2 mi WNW 11.5 mph - N/A   Mostly Cloudy
10:30 AM 50.0 °F - 39.2 °F 66% 30.54 in 6.2 mi WNW 15.0 mph - N/A   Mostly Cloudy
11:00 AM 50.0 °F - 41.0 °F 71% 30.54 in 6.2 mi WNW 10.4 mph - N/A   Scattered Clouds
11:30 AM 51.8 °F - 42.8 °F 71% 30.54 in 6.2 mi WNW 12.7 mph - N/A   Scattered Clouds
12:00 PM 51 °F - 41 °F 59% 30.55 in 12 mi WNW 15.7 mph - -   Partly Cloudy
12:00 PM 51.8 °F - 41.0 °F 67% 30.54 in 6.2 mi WNW 16.1 mph - N/A   Scattered Clouds
12:30 PM 50.0 °F - 42.8 °F 76% 30.51 in 6.2 mi WNW 19.6 mph - N/A   Scattered Clouds
1:00 PM 50.0 °F - 42.8 °F 76% 30.54 in 6.2 mi WNW 18.4 mph - N/A   Scattered Clouds
1:30 PM 51.8 °F - 41.0 °F 67% 30.54 in 6.2 mi WNW 16.1 mph - N/A   Mostly Cloudy
2:00 PM 51.8 °F - 41.0 °F 67% 30.54 in 6.2 mi WNW 16.1 mph - N/A   Mostly Cloudy
2:30 PM 50.0 °F - 42.8 °F 76% 30.54 in 6.2 mi WNW 15.0 mph - N/A   Mostly Cloudy
3:00 PM 50.0 °F - 42.8 °F 76% 30.54 in 6.2 mi WNW 10.4 mph - N/A   Mostly Cloudy
3:30 PM 50.0 °F - 42.8 °F 76% 30.57 in 6.2 mi WNW 13.8 mph - N/A   Mostly Cloudy
4:00 PM 50.0 °F - 42.8 °F 76% 30.57 in 6.2 mi NW 12.7 mph - N/A   Mostly Cloudy
4:30 PM 50.0 °F - 41.0 °F 71% 30.57 in 6.2 mi NW 11.5 mph - N/A   Mostly Cloudy
5:00 PM 50.0 °F - 41.0 °F 71% 30.60 in 6.2 mi WNW 11.5 mph - N/A   Mostly Cloudy
5:30 PM 48.2 °F - 41.0 °F 76% 30.60 in 6.2 mi WNW 5.8 mph - N/A   Mostly Cloudy
6:00 PM 49 °F - 42 °F 67% 30.63 in 12 mi WNW 8.9 mph - -   Mostly Cloudy
6:00 PM 48.2 °F - 41.0 °F 76% 30.63 in 6.2 mi WNW 9.2 mph - N/A   Mostly Cloudy
6:30 PM 50.0 °F - 41.0 °F 71% 30.63 in 6.2 mi WNW 9.2 mph - N/A   Mostly Cloudy
7:00 PM 48.2 °F - 41.0 °F 76% 30.63 in 6.2 mi WNW 8.1 mph - N/A   Mostly Cloudy
7:30 PM 48.2 °F - 41.0 °F 76% 30.63 in 6.2 mi WNW 6.9 mph - N/A   Mostly Cloudy
8:00 PM 48.2 °F - 41.0 °F 76% 30.63 in 6.2 mi West 6.9 mph - N/A   Mostly Cloudy
8:30 PM 46.4 °F 45.2 °F 41.0 °F 81% 30.63 in 6.2 mi NNW 3.5 mph - N/A   Mostly Cloudy
9:00 PM 48.2 °F - 41.0 °F 76% 30.63 in 6.2 mi West 4.6 mph - N/A   Mostly Cloudy
9:30 PM 48.2 °F - 42.8 °F 82% 30.66 in 6.2 mi WSW 3.5 mph - N/A   Mostly Cloudy
10:00 PM 48.2 °F - 42.8 °F 82% 30.66 in 6.2 mi West 2.3 mph - N/A   Mostly Cloudy
10:30 PM 48.2 °F - 42.8 °F 82% 30.66 in 6.2 mi WSW 4.6 mph - N/A   Mostly Cloudy
11:00 PM 48.2 °F - 42.8 °F 82% 30.66 in 6.2 mi West 6.9 mph - N/A   Mostly Cloudy
11:30 PM 48.2 °F - 42.8 °F 82% 30.66 in 6.2 mi WSW 5.8 mph - N/A   Mostly Cloudy